When you browse on this site, cookies collect data to enhance your experience and personalize the content and advertising you see.
Visit our Privacy Policy to learn more. By continuing to use the site, you agree to this use of cookies and data.
  • în România
  • Lista ţărilor
  • Pe 7 zile
  • Temperatura apei
  • Meteo pe hartă
  • Widget-uri
  • user-avatar
    Intrare

    Meteo pe oră la Brasília

    Astăzi, 28 Februarie, Vineri

    Timp Temperatura Precipitaţii Vânt Presiune Umiditate
    00:00 +22°C° 0 mm 1 m/s 665 mmHg 89%
    01:00 +21°C° 0 mm 1 m/s 665 mmHg 89%
    02:00 +21°C° 0 mm 1 m/s 665 mmHg 90%
    03:00 +21°C° 0 mm 1 m/s 665 mmHg 90%
    04:00 +21°C° 0 mm 1 m/s 665 mmHg 90%
    05:00 +19°C° 0 mm 0 m/s 665 mmHg 90%
    06:00 +18°C° 0 mm 0 m/s 665 mmHg 90%
    07:00 +20°C° 0 mm 0 m/s 666 mmHg 86%
    08:00 +22°C° 0 mm 0 m/s 667 mmHg 81%
    09:00 +23°C° 0 mm 0 m/s 668 mmHg 75%
    10:00 +27°C° 0 mm 1 m/s 668 mmHg 70%
    11:00 +28°C° 0 mm 1 m/s 668 mmHg 65%
    12:00 +29°C° 0 mm 2 m/s 668 mmHg 60%
    13:00 +29°C° 0.3 mm 2 m/s 667 mmHg 61%
    14:00 +29°C° 0.3 mm 1 m/s 666 mmHg 62%
    15:00 +29°C° 0.3 mm 1 m/s 666 mmHg 63%
    16:00 +28°C° 0.9 mm 1 m/s 665 mmHg 68%
    17:00 +27°C° 0.9 mm 1 m/s 665 mmHg 74%
    18:00 +26°C° 0.9 mm 1 m/s 665 mmHg 80%
    19:00 +25°C° 1.5 mm 1 m/s 665 mmHg 82%
    20:00 +24°C° 1.5 mm 1 m/s 665 mmHg 85%
    21:00 +23°C° 1.5 mm 1 m/s 666 mmHg 87%
    22:00 +22°C° 1.4 mm 1 m/s 666 mmHg 89%
    23:00 +22°C° 1.4 mm 1 m/s 666 mmHg 90%

    Mâine, 29 Februarie, Sâmbătă

    Timp Temperatura Precipitaţii Vânt Presiune Umiditate
    00:00 +22°C° 1.4 mm 1 m/s 666 mmHg 92%
    01:00 +22°C° 1 mm 1 m/s 666 mmHg 92%
    02:00 +22°C° 1 mm 1 m/s 666 mmHg 92%
    03:00 +21°C° 1 mm 2 m/s 665 mmHg 93%
    04:00 +22°C° 1.7 mm 1 m/s 665 mmHg 93%
    05:00 +21°C° 1.7 mm 1 m/s 665 mmHg 93%
    06:00 +21°C° 1.7 mm 1 m/s 665 mmHg 93%
    07:00 +22°C° 1.7 mm 1 m/s 666 mmHg 92%
    08:00 +22°C° 1.7 mm 1 m/s 667 mmHg 92%
    09:00 +22°C° 1.7 mm 1 m/s 667 mmHg 92%
    10:00 +22°C° 0.5 mm 1 m/s 667 mmHg 92%
    11:00 +22°C° 0.5 mm 1 m/s 667 mmHg 91%
    12:00 +23°C° 0.5 mm 1 m/s 666 mmHg 91%
    13:00 +24°C° 0.1 mm 1 m/s 666 mmHg 87%
    14:00 +25°C° 0.1 mm 1 m/s 666 mmHg 82%
    15:00 +26°C° 0.1 mm 1 m/s 665 mmHg 77%
    16:00 +25°C° 0.4 mm 1 m/s 665 mmHg 82%
    17:00 +24°C° 0.4 mm 1 m/s 664 mmHg 86%
    18:00 +23°C° 0.4 mm 1 m/s 664 mmHg 90%
    19:00 +23°C° 0.7 mm 1 m/s 664 mmHg 90%
    20:00 +22°C° 0.7 mm 1 m/s 665 mmHg 90%
    21:00 +21°C° 0.7 mm 2 m/s 665 mmHg 90%
    22:00 +22°C° 0.4 mm 1 m/s 665 mmHg 91%
    23:00 +21°C° 0.4 mm 1 m/s 665 mmHg 91%

    Poimâine, 1 Martie, Duminică

    Timp Temperatura Precipitaţii Vânt Presiune Umiditate
    00:00 +21°C° 0.4 mm 1 m/s 665 mmHg 92%
    01:00 +21°C° 0.7 mm 1 m/s 665 mmHg 92%
    02:00 +21°C° 0.7 mm 1 m/s 665 mmHg 93%
    03:00 +19°C° 0.7 mm 0 m/s 664 mmHg 93%
    04:00 +19°C° 0.7 mm 0 m/s 664 mmHg 93%
    05:00 +19°C° 0.7 mm 0 m/s 664 mmHg 93%
    06:00 +19°C° 0.7 mm 0 m/s 664 mmHg 93%
    07:00 +19°C° 0.7 mm 0 m/s 665 mmHg 93%
    08:00 +20°C° 0.7 mm 0 m/s 666 mmHg 92%
    09:00 +22°C° 0.7 mm 1 m/s 666 mmHg 91%
    10:00 +22°C° 2.5 mm 1 m/s 666 mmHg 92%
    11:00 +22°C° 2.5 mm 1 m/s 666 mmHg 94%
    12:00 +21°C° 2.5 mm 1 m/s 666 mmHg 95%
    13:00 +21°C° 4.4 mm 1 m/s 665 mmHg 96%
    14:00 +21°C° 4.4 mm 1 m/s 665 mmHg 96%
    15:00 +21°C° 4.4 mm 1 m/s 664 mmHg 96%
    16:00 +21°C° 3 mm 1 m/s 664 mmHg 96%
    17:00 +21°C° 3 mm 1 m/s 664 mmHg 96%
    18:00 +21°C° 3 mm 1 m/s 664 mmHg 96%
    19:00 +20°C° 0 mm 1 m/s 664 mmHg 96%
    20:00 +20°C° 0 mm 1 m/s 664 mmHg 96%
    21:00 +20°C° 0 mm 1 m/s 664 mmHg 96%
    22:00 +20°C° 0 mm 1 m/s 664 mmHg 96%
    23:00 +20°C° 0 mm 1 m/s 664 mmHg 96%

    2 Martie, Luni

    Timp Temperatura Precipitaţii Vânt Presiune Umiditate
    00:00 +20°C° 0 mm 1 m/s 664 mmHg 96%
    01:00 +20°C° 0 mm 1 m/s 664 mmHg 96%
    02:00 +20°C° 0 mm 1 m/s 663 mmHg 97%
    03:00 +18°C° 0 mm 0 m/s 663 mmHg 97%
    04:00 +20°C° 0 mm 1 m/s 663 mmHg 96%
    05:00 +20°C° 0 mm 1 m/s 663 mmHg 96%
    06:00 +20°C° 0 mm 1 m/s 663 mmHg 96%
    07:00 +20°C° 0.1 mm 1 m/s 664 mmHg 94%
    08:00 +21°C° 0.1 mm 1 m/s 664 mmHg 93%
    09:00 +21°C° 0.1 mm 1 m/s 665 mmHg 92%
    10:00 +21°C° 0.3 mm 1 m/s 665 mmHg 92%
    11:00 +20°C° 0.3 mm 2 m/s 664 mmHg 92%
    12:00 +20°C° 0.3 mm 2 m/s 664 mmHg 93%
    13:00 +23°C° 0.1 mm 2 m/s 664 mmHg 87%
    14:00 +24°C° 0.1 mm 2 m/s 663 mmHg 81%
    15:00 +26°C° 0.1 mm 2 m/s 663 mmHg 75%
    16:00 +25°C° 1.1 mm 2 m/s 663 mmHg 80%
    17:00 +24°C° 1.1 mm 1 m/s 662 mmHg 84%
    18:00 +23°C° 1.1 mm 1 m/s 662 mmHg 89%
    19:00 +23°C° 1.2 mm 1 m/s 663 mmHg 89%
    20:00 +22°C° 1.2 mm 1 m/s 663 mmHg 90%
    21:00 +21°C° 1.2 mm 1 m/s 663 mmHg 91%
    22:00 +21°C° 1 mm 1 m/s 663 mmHg 91%
    23:00 +21°C° 1 mm 1 m/s 663 mmHg 92%

    3 Martie, Marţi

    Timp Temperatura Precipitaţii Vânt Presiune Umiditate
    00:00 +21°C° 1 mm 1 m/s 663 mmHg 92%
    01:00 +21°C° 0.5 mm 1 m/s 663 mmHg 93%
    02:00 +20°C° 0.5 mm 1 m/s 663 mmHg 93%
    03:00 +20°C° 0.5 mm 1 m/s 663 mmHg 94%
    04:00 +20°C° 0.1 mm 1 m/s 663 mmHg 94%
    05:00 +20°C° 0.1 mm 1 m/s 663 mmHg 94%
    06:00 +20°C° 0.1 mm 1 m/s 663 mmHg 94%
    07:00 +20°C° 0 mm 2 m/s 664 mmHg 92%
    08:00 +21°C° 0 mm 3 m/s 664 mmHg 89%
    09:00 +22°C° 0 mm 4 m/s 665 mmHg 86%
    10:00 +23°C° 0.4 mm 4 m/s 665 mmHg 84%
    11:00 +23°C° 0.4 mm 4 m/s 665 mmHg 82%
    12:00 +25°C° 0.4 mm 4 m/s 665 mmHg 80%
    13:00 +25°C° 0.8 mm 4 m/s 664 mmHg 81%
    14:00 +25°C° 0.8 mm 4 m/s 664 mmHg 81%
    15:00 +25°C° 0.8 mm 4 m/s 663 mmHg 82%
    16:00 +23°C° 0.5 mm 4 m/s 663 mmHg 84%
    17:00 +24°C° 0.5 mm 3 m/s 663 mmHg 86%
    18:00 +23°C° 0.5 mm 2 m/s 663 mmHg 88%
    19:00 +21°C° 0.5 mm 2 m/s 663 mmHg 90%
    20:00 +21°C° 0.5 mm 2 m/s 663 mmHg 92%
    21:00 +20°C° 0.5 mm 2 m/s 664 mmHg 93%
    22:00 +20°C° 1.2 mm 2 m/s 664 mmHg 94%
    23:00 +20°C° 1.2 mm 2 m/s 664 mmHg 95%

    4 Martie, Miercuri

    Timp Temperatura Precipitaţii Vânt Presiune Umiditate
    00:00 +19°C° 1.2 mm 2 m/s 664 mmHg 96%
    01:00 +20°C° 0.5 mm 2 m/s 664 mmHg 96%
    02:00 +20°C° 0.5 mm 2 m/s 664 mmHg 96%
    03:00 +20°C° 0.5 mm 2 m/s 663 mmHg 96%
    04:00 +21°C° 0 mm 1 m/s 664 mmHg 96%
    05:00 +21°C° 0 mm 1 m/s 664 mmHg 96%
    06:00 +20°C° 0 mm 1 m/s 664 mmHg 95%
    07:00 +22°C° 0 mm 1 m/s 665 mmHg 91%
    08:00 +23°C° 0 mm 1 m/s 666 mmHg 86%
    09:00 +24°C° 0 mm 1 m/s 666 mmHg 82%
    10:00 +25°C° 0.6 mm 2 m/s 666 mmHg 80%
    11:00 +26°C° 0.6 mm 2 m/s 666 mmHg 77%
    12:00 +27°C° 0.6 mm 2 m/s 666 mmHg 75%
    13:00 +27°C° 0.7 mm 2 m/s 665 mmHg 74%
    14:00 +27°C° 0.7 mm 2 m/s 665 mmHg 72%
    15:00 +28°C° 0.7 mm 2 m/s 664 mmHg 71%
    16:00 +27°C° 0.7 mm 2 m/s 664 mmHg 74%
    17:00 +26°C° 0.7 mm 1 m/s 664 mmHg 78%
    18:00 +25°C° 0.7 mm 1 m/s 664 mmHg 82%
    19:00 +24°C° 0.3 mm 1 m/s 664 mmHg 84%
    20:00 +23°C° 0.3 mm 1 m/s 664 mmHg 86%
    21:00 +22°C° 0.3 mm 1 m/s 664 mmHg 88%
    22:00 +21°C° 0.3 mm 1 m/s 664 mmHg 89%
    23:00 +21°C° 0.3 mm 1 m/s 664 mmHg 90%
    Arată mai mult